Cozumel, Mexico

10:11 AM on April 26, 2017 (GMT +0000)
Cozumel International

Weather History for MMCZ - December, 2013

Change the Weather History Date:

Friday, December 13, 2013

  Actual Average Record
Temperature  
Mean Temperature 73 °F -  
Max Temperature 80 °F 81 °F 87 °F (1999)
Min Temperature 64 °F 70 °F 59 °F (2004)
Cooling Degree Days 8    
Growing Degree Days 23 (Base 50)    
Moisture  
Dew Point 70 °F    
Average Humidity 91    
Maximum Humidity 100    
Minimum Humidity 74    
Precipitation  
Precipitation 0.15 in - - ()
Sea Level Pressure  
Sea Level Pressure 30.01 in    
Wind  
Wind Speed 7 mph ()    
Max Wind Speed 16 mph    
Max Gust Speed -    
Visibility 7.1 miles    
Events      
Averages and records for this station are not official NWS values.
T = Trace of Precipitation, MM = Missing Value Source: Averaged Metar Reports

Daily Weather History Graph

Daily Weather History Graph

Search for Another Location

Airport or City:

Trip Planner

Search our weather history database for the weather conditions in past years. The results will help you decide how hot, cold, wet, or windy it might be!

Date:

Astronomy

Dec. 13, 2013 Rise Set
Actual Time 6:14 AM CST 5:09 PM CST
Civil Twilight 5:50 AM CST 5:33 PM CST
Nautical Twilight 5:23 AM CST 6:00 PM CST
Astronomical Twilight 4:56 AM CST 6:28 PM CST
Moon 2:35 PM CST (12/13) 2:56 AM CST (12/13)
Length of Visible Light 11h 42m
Length of Day
10h 54m
Waxing Gibbous, 88% of the Moon is Illuminated
Dec 13
Waxing Gibbous
Dec 17
Full
Dec 25
Last Quarter
Jan 1
New
Jan 7
First Quarter

Hourly Weather History & Observations

Time (CST) Temp. Heat Index Dew Point Humidity Pressure Visibility Wind Dir Wind Speed Gust Speed Precip Events Conditions
12:41 AM 69.8 °F - 69.8 °F 100% 30.04 in 7.0 mi South 6.9 mph - N/A   Mostly Cloudy
1:40 AM 69.8 °F - 69.8 °F 100% 30.02 in 7.0 mi East 5.8 mph - N/A   Mostly Cloudy
2:41 AM 69.8 °F - 69.8 °F 100% 30.04 in 7.0 mi East 5.8 mph - N/A   Scattered Clouds
3:40 AM 71.6 °F - 71.6 °F 100% 29.99 in 7.0 mi East 5.8 mph - N/A   Scattered Clouds
4:55 AM 71.6 °F - 69.8 °F 94% 30.00 in 7.0 mi East 8.1 mph - N/A   Scattered Clouds
5:44 AM 73.4 °F - 69.8 °F 88% 30.01 in 7.0 mi East 8.1 mph - N/A   Scattered Clouds
6:56 AM 69.8 °F - 68.0 °F 94% 30.04 in 7.0 mi ESE 12.7 mph - N/A   Mostly Cloudy
7:40 AM 69.8 °F - 68.0 °F 94% 30.04 in 7.0 mi East 5.8 mph - N/A   Mostly Cloudy
8:40 AM 77.0 °F - 71.6 °F 83% 30.10 in 7.0 mi East 13.8 mph - N/A   Mostly Cloudy
9:42 AM 78.8 °F - 71.6 °F 78% 30.07 in 7.0 mi East 13.8 mph - N/A   Mostly Cloudy
10:40 AM 78.8 °F - 71.6 °F 78% 30.06 in 7.0 mi East 16.1 mph - N/A   Scattered Clouds
11:40 AM 80.6 °F 84.6 °F 71.6 °F 74% 30.03 in 7.0 mi East 13.8 mph - N/A   Scattered Clouds
12:40 PM 78.8 °F - 69.8 °F 74% 30.00 in 7.0 mi East 15.0 mph - N/A   Scattered Clouds
1:40 PM 78.8 °F - 71.6 °F 78% 29.97 in 7.0 mi East 9.2 mph - N/A   Scattered Clouds
2:53 PM 78.8 °F - 71.6 °F 78% 29.97 in 8.0 mi East 11.5 mph - N/A   Scattered Clouds
3:53 PM 77.0 °F - 71.6 °F 83% 29.95 in 8.0 mi East 10.4 mph - N/A   Scattered Clouds
4:46 PM 75.2 °F - 71.6 °F 89% 29.95 in 7.0 mi East 5.8 mph - N/A   Scattered Clouds
5:47 PM 71.6 °F - 69.8 °F 94% 29.94 in 7.0 mi East 5.8 mph - N/A   Mostly Cloudy
6:50 PM 71.6 °F - 69.8 °F 94% 29.98 in 7.0 mi East 5.8 mph - N/A   Scattered Clouds
7:46 PM 69.8 °F - 69.8 °F 100% 30.00 in 7.0 mi East 6.9 mph - N/A   Scattered Clouds
8:40 PM 68.0 °F - 68.0 °F 100% 30.03 in 7.0 mi ESE 4.6 mph - N/A   Scattered Clouds
9:46 PM 66.2 °F - 66.2 °F 100% 30.01 in 7.0 mi ESE 3.5 mph - N/A   Scattered Clouds
10:41 PM 66.2 °F - 66.2 °F 100% 29.99 in 7.0 mi Calm Calm - N/A   Partly Cloudy
11:46 PM 64.4 °F - 64.4 °F 100% 29.98 in 7.0 mi Calm Calm - N/A   Partly Cloudy